metlocid,date_time,avg_wspd,std_wspd,min_wspd,max_wspd,n_wspd,n_comments
HODM,11/1/93,2.198780483,1.12376065,0.6,6,82,2
HODM,12/1/93,2.905763685,2.261080047,0.1,14.5,1388,4
HODM,1/1/94,2.098028163,1.288463091,0.2,6.1,710,1
HODM,2/1/94,2.444196436,1.660450609,0.3,8.2,224,1
HODM,3/1/94,2.9608871,2.025875738,0.4,13.2,248,0
HODM,4/1/94,3.107916666,1.592050012,0.5,6.6,240,0
HODM,5/1/94,3.604032245,3.207945567,0.5,20.1,248,0
HODM,6/1/94,3.638333338,2.252369601,0.8,13,240,0
HODM,7/1/94,3.622177419,2.485543633,0.6,14.4,248,0
HODM,8/1/94,4.035483876,2.086943947,0.8,14,248,1
HODM,9/1/94,3.180833327,2.67147632,0.6,17.8,240,0
HODM,10/1/94,2.293548387,1.748949574,0.4,9.8,248,0
HODM,11/1/94,2.582122909,1.996883545,0.4,11.3,179,545
HODM,12/1/94,,,,,0,2231
HODM,1/1/95,2.617598687,1.552596756,0.02,6.89,608,1621
HODM,2/1/95,3.176359124,3.125580065,0,16.83,2016,8
HODM,3/1/95,2.899753584,2.461462852,0,15.99,2232,0
HODM,4/1/95,2.801879631,2.069508875,0.01,14.8,2160,0
HODM,5/1/95,3.183015231,3.127455878,0,23.57,2232,1
HODM,6/1/95,3.696921298,2.800258606,0.13,19.72,2160,0
HODM,7/1/95,3.03625,1.857990041,0.04,15.93,2232,0
HODM,8/1/95,3.799865592,2.768709349,0.01,18.22,2232,0
HODM,9/1/95,2.734708331,2.209503201,0,12.19,2160,0
HODM,10/1/95,2.666308245,2.138466902,0,14.73,2232,1
HODM,11/1/95,3.469058032,2.601875765,0.05,16.74,2240,0
HODM,12/1/95,2.569415127,1.528272955,0,9.76,2975,2
HODM,1/1/96,3.184794892,2.125721629,0,11.5,2974,3
HODM,2/1/96,2.723563218,1.727234685,0,7.8,2784,2
HODM,3/1/96,2.981451615,3.159594505,0,27.7,2976,9
HODM,4/1/96,3.544097221,2.98263701,0,19.3,2880,1
HODM,5/1/96,2.968111558,2.005729925,0,11.3,2976,5
HODM,6/1/96,3.166770831,2.0827439,0,14,2880,1
HODM,7/1/96,3.630712365,2.206672303,0,18.5,2976,6
HODM,8/1/96,3.691095433,2.619590972,0,17.7,2976,4
HODM,9/1/96,3.039444445,1.994998883,0,13.8,2880,2
HODM,10/1/96,2.619186825,2.344899303,0,13.9,2976,13
HODM,11/1/96,2.560229244,1.984428278,0,17.9,2879,1
HODM,12/1/96,2.658131722,1.637019555,0,10.3,2976,1
HODM,1/1/97,2.109983193,1.51540104,0,7.9,2975,9
HODM,2/1/97,2.659077381,1.965559293,0,9.5,2688,2
HODM,3/1/97,2.550772849,1.861635519,0,9.6,2976,7
HODM,4/1/97,3.041180553,2.245891318,0,20.9,2880,11
HODM,5/1/97,4.611021504,3.888857537,0,22.9,2976,0
HODM,6/1/97,3.488055555,2.509141961,0,14.5,2880,3
HODM,7/1/97,3.526780912,2.290362384,0,17.7,2976,2
HODM,8/1/97,3.690154569,3.065106495,0,17.7,2976,2
HODM,9/1/97,3.14579861,2.548041304,0,14.9,2880,1
HODM,10/1/97,3.668413978,3.610225014,0,20.7,2976,5
HODM,11/1/97,3.391828934,2.900445432,0,14.7,2876,9
HODM,12/1/97,2.397043009,1.567374722,0,8.1,2976,16
HODM,1/1/98,2.636021504,1.819982315,0,9.6,2976,17
HODM,2/1/98,2.487834825,2.430836531,0,17.2,2688,6
HODM,3/1/98,3.365389785,2.353934318,0,9.3,2976,9
HODM,4/1/98,3.952534722,2.683644106,0,20.9,2880,0
HODM,5/1/98,3.603192201,2.648958548,0,18.3,2976,0
HODM,6/1/98,3.653854166,3.029353745,0.1,19.4,2880,0
HODM,7/1/98,3.554771506,3.040587746,0,23.2,2976,2
HODM,8/1/98,3.731451614,3.736879394,0,23.1,2976,1
HODM,9/1/98,2.497916665,1.952226173,0,12.9,2880,3
HODM,10/1/98,3.119489248,3.021315296,0,20.8,2976,0
HODM,11/1/98,2.718090273,1.992978948,0,13.3,2880,0
HODM,12/1/98,3.2313172,2.381951826,0.1,13.4,2976,0
HODM,1/1/99,2.496807793,1.759321838,0,11.3,2976,1
HODM,2/1/99,2.286346726,1.71678039,0,11.7,2688,0
HODM,3/1/99,2.992204299,2.040933967,0,9.8,2976,1
HODM,4/1/99,3.132499999,1.945702507,0.1,14,2880,0
HODM,5/1/99,4.04106183,2.18217857,0.2,14.1,2976,0
HODM,6/1/99,3.217465276,2.170175138,0,14.4,2880,13
HODM,7/1/99,3.689650537,2.798133904,0.1,17.9,2976,0
HODM,8/1/99,3.648185484,2.312772737,0,14.5,2976,0
HODM,9/1/99,2.951909724,2.376543174,0.1,14.5,2880,0
HODM,10/1/99,3.237970432,3.488580625,0.1,26.7,2976,0
HODM,11/1/99,2.786180555,2.301402536,0.1,14.9,2880,0
HODM,12/1/99,2.999059139,1.723909705,0.1,15.1,2976,0
HODM,1/1/00,2.93485714,1.778326828,0,11,2975,1
HODM,2/1/00,2.732219829,2.10210954,0,13.6,2784,1
HODM,3/1/00,2.971673387,2.263668626,0.1,14.3,2976,0
HODM,4/1/00,2.919305556,1.9886537,0.1,12.2,2880,0
HODM,5/1/00,3.039667457,2.072936271,0,14.8,2947,29
HODM,6/1/00,3.51552083,2.665877687,0.1,21.9,2880,0
HODM,7/1/00,4.415841243,3.442686492,0,20.3,2948,29
HODM,8/1/00,4.155981182,2.856543927,0,19.2,2976,0
HODM,9/1/00,4.328055558,4.424082054,0,25.6,2880,0
HODM,10/1/00,1.925268817,1.561933704,0,9.9,2976,0
HODM,11/1/00,3.379464905,2.75562914,0.1,16.1,2878,2
HODM,12/1/00,2.517439516,1.432696807,0,7.9,2976,0
HODM,1/1/01,2.542473118,1.853412155,0,14.4,2976,3
HODM,2/1/01,2.301860118,1.693241747,0,11.2,2688,1
HODM,3/1/01,2.698924731,2.636821139,0,22.1,2976,1
HODM,4/1/01,3.202256943,2.530513702,0,17,2880,1
HODM,5/1/01,3.778158599,2.742696967,0.2,20.2,2976,0
HODM,6/1/01,3.814548611,2.593394799,0.2,15.3,2880,0
HODM,7/1/01,4.309711022,2.948548679,0.2,20.8,2976,0
HODM,8/1/01,3.134778225,1.995062012,0.1,14.2,2976,0
HODM,9/1/01,3.641215277,2.856908033,0.1,17.4,2880,0
HODM,10/1/01,3.191129031,2.542935895,0.2,16.1,2976,0
HODM,11/1/01,2.846249997,2.113329526,0,12.3,2880,1
HODM,12/1/01,3.009677419,2.123203646,0.1,14.6,2976,0
HODM,1/1/02,2.76908602,2.901990963,0.1,16.9,2976,0
HODM,2/1/02,2.400372025,2.043665466,0,14.5,2688,2
HODM,3/1/02,2.607056451,1.884483461,0.1,11.5,2976,0
HODM,4/1/02,3.296319442,2.209598945,0,17.3,2880,3
HODM,5/1/02,3.09700941,2.159880439,0.1,14.8,2976,0
HODM,6/1/02,2.896458334,2.156390208,0,19.1,2880,2
HODM,7/1/02,3.568077955,2.192205242,0.2,18.3,2976,0
HODM,8/1/02,3.444455643,2.563545895,0.2,16.7,2976,0
HODM,9/1/02,2.444930553,1.633938634,0,12,2880,3
HODM,10/1/02,2.411995967,2.216856864,0,16.4,2976,1
HODM,11/1/02,2.799999999,2.838782661,0,21.3,2880,5
HODM,12/1/02,2.048051076,1.662330924,0,12.1,2976,6
HODM,1/1/03,2.198924731,1.574937806,0,10.5,2976,14
HODM,2/1/03,1.832366073,1.518287502,0,11.1,2688,7
HODM,3/1/03,2.749697579,2.181645334,0,12.9,2976,18
HODM,4/1/03,2.736145831,1.937463345,0,19.3,2880,4
HODM,5/1/03,4.421706993,3.835492711,0.1,19.3,2976,0
HODM,6/1/03,3.338020832,2.647074756,0,19.6,2880,1
HODM,7/1/03,4.126243278,2.310921125,0.2,15.5,2976,0
HODM,8/1/03,3.027083332,1.97856557,0.2,18.3,2976,0
HODM,9/1/03,4.253819446,4.25052796,0.1,24,2880,0
HODM,10/1/03,3.263608871,2.789691036,0,14.6,2976,1
HODM,11/1/03,2.591979164,1.68512326,0,8.6,2880,3
HODM,12/1/03,2.727116935,1.944844656,0,10.1,2976,1
HODM,1/1/04,2.344119623,1.533977867,0,8.6,2976,8
HODM,2/1/04,2.511817528,1.88643256,0,8.3,2784,2
HODM,3/1/04,2.650336021,2.089289183,0,11.3,2976,24
HODM,4/1/04,3.268645833,2.183542182,0.2,15.3,2880,0
HODM,5/1/04,4.796438173,3.674195378,0.1,25.9,2976,0
HODM,6/1/04,5.463229168,5.579308401,0.1,29.8,2880,0
HODM,7/1/04,3.183702956,2.315033776,0.1,20.4,2976,0
HODM,8/1/04,4.582526882,4.708073924,0.1,29,2976,0
HODM,9/1/04,2.78361111,2.904160127,0,18.8,2880,4
HODM,10/1/04,2.712600811,2.56189646,0,17.2,2976,8
HODM,11/1/04,3.065069441,2.252842438,0.1,13,2880,0
HODM,12/1/04,2.070228494,1.509840241,0,12.4,2976,14
HODM,1/1/05,2.241263438,1.671980943,0,11.8,2976,9
HODM,2/1/05,2.523177082,1.9084719,0,8.3,2688,7
HODM,3/1/05,3.127721777,2.222839652,0,18,2976,4
HODM,4/1/05,2.689826389,1.872269985,0,12.7,2880,5
HODM,5/1/05,3.815658603,2.784403764,0.1,18.1,2976,0
HODM,6/1/05,3.690694442,3.561879458,0,20.8,2880,2
HODM,7/1/05,4.340826612,4.229738229,0.1,27.9,2976,0
HODM,8/1/05,3.896538977,3.436669989,0,22,2976,1
HODM,9/1/05,3.764166664,2.611454589,0,24.8,2880,1
HODM,10/1/05,3.384139784,3.371571285,0.1,21.5,2976,0
HODM,11/1/05,2.615624997,1.791566523,0,11.2,2880,1
HODM,12/1/05,2.131418009,1.567256599,0,12,2976,6
HODM,1/1/06,1.880409947,1.253208036,0,7.7,2976,7
HODM,2/1/06,3.937209301,0.870419492,1.7,5.5,43,0
HODM,1/1/07,2.11391231,1.159230225,0.2,5.6,1186,0
HODM,2/1/07,2.150037201,1.634326601,0,10.6,2688,3
HODM,3/1/07,2.630846773,2.208585863,0,15.7,2976,6
HODM,4/1/07,3.841076385,3.101665714,0.2,19.7,2880,0
HODM,5/1/07,4.523924726,3.411412203,0,22.6,2976,1
HODM,6/1/07,4.203402779,3.11187748,0.2,23.6,2880,0
HODM,7/1/07,3.948151877,2.888574399,0.1,22.3,2976,0
HODM,8/1/07,4.250705645,3.409377018,0.1,24,2976,0
HODM,9/1/07,3.652118053,3.166822131,0,19.2,2880,3
HODM,10/1/07,2.233366937,2.227313763,0,15.1,2976,10
HODM,11/1/07,2.386874999,1.925466332,0,12.1,2880,2
HODM,12/1/07,3.198487903,1.748961103,0.1,11.6,2976,0
HODM,1/1/08,2.797983191,1.700942013,0,8.4,2975,2349
HODM,2/1/08,2.620186781,1.867259136,0,11.6,2784,2784
HODM,3/1/08,2.939146505,2.433970331,0,17.6,2976,2976
HODM,4/1/08,3.155659721,2.139551928,0,15.8,2880,2880
HODM,5/1/08,3.761189515,2.006041914,0.1,13.4,2976,2976
HODM,6/1/08,3.982986112,4.162405822,0,26.2,2880,2880
HODM,7/1/08,3.871942202,2.70189769,0.2,21.4,2976,2976
HODM,8/1/08,3.667573921,2.394898007,0.1,20.2,2976,2976
HODM,9/1/08,4.374618053,2.867672917,0.2,15.3,2880,2880
HODM,10/1/08,2.196337364,1.711584853,0,10.1,2976,2976
HODM,11/1/08,2.758472223,2.191216263,0,14.1,2880,637
HODM,12/1/08,2.83860887,1.910231967,0.1,15,2976,0
HODM,1/1/09,1.740841054,0.997668394,0,5.1,1403,8
HODM,10/1/09,2.256541631,1.905262075,0,10.3,1093,1
HODM,11/1/09,3.033124995,2.232498587,0,12.7,2880,2
HODM,12/1/09,2.389012097,1.443661393,0,11,2976,4
HODM,1/1/10,2.189247311,1.397189963,0,8.7,2976,8
HODM,2/1/10,2.409784228,2.02790476,0,11.3,2688,18
HODM,3/1/10,2.304133062,1.891534356,0,8.8,2976,47
HODM,4/1/10,3.293472224,2.230266199,0.2,14.6,2880,0
HODM,5/1/10,3.555477148,2.28977638,0.1,14.3,2976,0
HODM,6/1/10,3.749166664,2.09151331,0.3,16.6,2880,0
HODM,7/1/10,4.287298386,2.668541914,0.3,17.5,2976,0
HODM,8/1/10,4.185416669,4.009732993,0,24.6,2976,1
HODM,9/1/10,3.007604164,2.079609028,0,14.3,2880,5
HODM,10/1/10,2.845060483,2.934940905,0,27,2976,1
HODM,11/1/10,3.638680552,2.753888337,0.1,23.7,2880,0
HODM,12/1/10,2.51706989,1.932227595,0.1,21,2976,0
HODM,1/1/11,1.78514785,1.231134411,0,7,2976,17
HODM,2/1/11,2.307291665,1.802988986,0,10.3,2688,14
HODM,3/1/11,2.727822578,2.023669703,0,12.7,2976,8
HODM,4/1/11,3.094965281,2.637857096,0.1,18.6,2880,0
HODM,5/1/11,3.348723119,1.995636855,0,14.2,2976,1
HODM,6/1/11,3.372083334,2.646970355,0,15.4,2880,2
HODM,7/1/11,4.246875003,3.568336528,0.1,19.2,2976,0
HODM,8/1/11,3.642641124,2.67062192,0.3,20,2976,0
HODM,9/1/11,3.252430556,3.334655097,0,24.5,2880,2
HODM,10/1/11,3.170564521,3.319981866,0,21.1,2976,1
HODM,11/1/11,2.477222221,1.705299525,0.1,12.1,2880,0
HODM,12/1/11,2.91696519,2.450362417,0,18.3,2959,18
HODM,1/1/12,2.347630252,1.338059702,0,7.7,2975,1
HODM,2/1/12,2.795079022,2.017263133,0,15.2,2784,7
HODM,3/1/12,2.787331989,1.830443987,0,9.4,2976,4
HODM,4/1/12,3.861631946,2.364306358,0,15.3,2880,4
HODM,5/1/12,4.99092742,3.832074942,0,18.5,2976,3
HODM,6/1/12,4.068611113,3.199658218,0.2,24.1,2880,0
HODM,7/1/12,3.094926072,2.017697608,0.1,14.2,2976,0
HODM,8/1/12,4.114381719,4.18147191,0,25,2976,1
HODM,9/1/12,3.268437502,2.102820762,0.1,13.6,2880,0
HODM,10/1/12,2.472916668,1.766696303,0.1,10.4,2976,0
HODM,11/1/12,2.451909719,1.651236493,0,12.9,2880,1
HODM,12/1/12,2.184173386,1.440824293,0,8.4,2976,4
HODM,1/1/13,2.453326613,1.704584728,0,12.1,2976,4
HODM,2/1/13,2.273586308,1.856871946,0,8.4,2688,8
HODM,3/1/13,2.619556452,1.966545564,0,17.2,2976,6
HODM,4/1/13,3.80833333,2.709616484,0.1,20.3,2880,0
HODM,5/1/13,3.195698922,2.133447514,0.1,18.3,2976,0
HODM,6/1/13,3.150416663,2.042378345,0.1,11.8,2880,0
HODM,7/1/13,3.232829301,2.07299261,0.1,12.8,2976,0
HODM,8/1/13,4.215389782,3.873422272,0.2,28.2,2976,0
HODM,9/1/13,4.025347225,3.671098024,0.1,24.5,2880,0
HODM,10/1/13,2.447580647,2.235125442,0,16.5,2976,3
HODM,11/1/13,2.892395836,2.304789365,0.1,12.2,2880,0
HODM,12/1/13,2.733266127,1.595742933,0.1,12.2,2976,0
HODM,1/1/14,2.429458276,1.730096022,0.06,13.4,2972,2750
HODM,2/1/14,2.903164555,2.022962413,0.06,13.07,2686,2686
HODM,3/1/14,2.497867522,1.633712452,0.06,8.64,2959,2959
HODM,4/1/14,3.522142361,3.063426585,0.19,20.61,2880,2880
HODM,5/1/14,3.348342857,2.76740086,0.06,17.63,2975,2975
HODM,6/1/14,3.010920136,1.860503805,0.1,13.66,2880,2880
HODM,7/1/14,3.36496304,2.022246613,0.22,16.87,2976,2976
HODM,8/1/14,4.078752104,3.295356164,0.07,20.16,2973,2973
HODM,9/1/14,3.463035776,2.58229963,0.07,18.32,2879,2879
HODM,10/1/14,3.652612798,2.946094196,0.05,14.62,2970,2970
HODM,11/1/14,2.283053143,1.357816645,0,7.23,2879,2879
HODM,12/1/14,2.6215625,1.232338004,0,6.56,2976,2976
HODM,1/1/15,2.701250002,1.731319212,0,10.21,2976,2976
HODM,2/1/15,2.724639136,1.900630265,0,11.82,2688,2688
HODM,3/1/15,2.797614246,1.716254986,0,9.62,2976,2976
HODM,4/1/15,2.818270833,1.880214792,0,14.18,2880,2880
HODM,5/1/15,3.095571235,1.774834128,0.04,14.85,2976,2976
HODM,6/1/15,3.85285764,2.917359784,0.03,23.38,2880,2880
HODM,7/1/15,3.444882395,2.641117721,0.06,18.26,2976,2976
HODM,8/1/15,4.035288979,3.556144028,0.1,23.49,2976,2976
HODM,9/1/15,3.477409723,2.873347397,0.08,17.72,2880,2880
HODM,10/1/15,3.074758065,2.82149602,0.04,16.09,2976,2976
HODM,11/1/15,2.596336463,1.945979648,0,13.25,2877,534
HODM,12/1/15,2.864065863,2.078633072,0.04,15.54,2976,0
HODM,1/1/16,2.197355511,1.707665654,0,10.37,2976,0
HODM,2/1/16,2.678045977,1.840754954,0.02,11.84,2784,0
HODM,3/1/16,2.63792003,1.971570658,0,15.47,2976,0
HODM,4/1/16,3.330361111,1.939533129,0,12.1,2880,0
HODM,5/1/16,3.886048387,3.895361957,0.02,26.14,2976,0
HODM,6/1/16,2.605034722,1.655871322,0,13.65,2880,0
HODM,7/1/16,2.649650539,1.517711753,0.07,11.12,2976,0
HODM,8/1/16,3.926397848,2.577131569,0.1,17.76,2976,0
HODM,9/1/16,2.781972223,2.12952793,0.05,16.98,2880,0
HODM,10/1/16,1.970332886,1.626881028,0,11.63,2974,0
HODM,11/1/16,2.526604169,2.293382986,0,15.34,2880,0
HODM,12/1/16,2.006502018,1.887597585,0,14.08,2976,0
HODM,1/1/17,2.182190863,1.538913656,0,9.16,2976,0
HODM,2/1/17,2.22875372,1.404614749,0.02,8.28,2688,0
HODM,3/1/17,2.211384406,1.848421636,0,10.63,2976,0
HODM,4/1/17,4.215819444,1.786261595,0.4,13.25,2880,0
HODM,5/1/17,3.776024863,3.244272584,0.02,24.73,2976,0
HODM,6/1/17,3.411208332,2.469008005,0.11,19.68,2880,0
HODM,7/1/17,3.973608874,2.698509033,0.06,20.09,2976,0
HODM,8/1/17,4.466975811,3.381870651,0.05,21.96,2976,0
HODM,9/1/17,3.157364584,2.49328936,0.01,19.87,2880,0
HODM,10/1/17,3.071041668,2.968220314,0,16.51,2976,0
HODM,11/1/17,2.104414728,2.046243819,0,17.32,2879,0
HODM,12/1/17,2.26079301,1.510393072,0,10.43,2976,0
HODM,1/1/18,2.199149866,1.554640802,0,7.97,2976,0
HODM,2/1/18,2.446216517,1.906545579,0,11.91,2688,0
HODM,3/1/18,3.157829302,2.370297657,0,15.69,2976,0
HODM,4/1/18,4.578138887,3.487754138,0.15,22.32,2880,0
HODM,5/1/18,3.646962367,2.196390803,0.07,14.82,2976,0
HODM,6/1/18,3.422284724,2.328220704,0,18.12,2880,0
HODM,7/1/18,4.717674736,4.210353106,0.05,26.05,2976,0
HODM,8/1/18,3.717422717,2.982751566,0.01,20.59,2976,0
HODM,9/1/18,3.738527776,3.940960184,0,19.76,2880,0
HODM,10/1/18,3.470245295,3.198739493,0,16.55,2976,0
HODM,11/1/18,2.555170375,1.993115577,0,14.39,2876,0
HODM,12/1/18,2.911575939,2.018049916,0,12.62,2976,0
HODM,1/1/19,2.354697579,1.455713325,0,10.91,2976,0
HODM,2/1/19,2.754561009,2.021564195,0,11.1,2688,0
HODM,3/1/19,2.680823254,2.002599729,0,9.6,2976,0
HODM,4/1/19,3.952131947,2.072052804,0.07,12.78,2880,0
HODM,5/1/19,3.644650537,2.255985516,0,14.4,2976,0
HODM,6/1/19,4.436555555,3.657192647,0.08,23.16,2880,0
HODM,7/1/19,4.028823925,3.755278891,0.02,23.65,2976,0
HODM,8/1/19,3.982157259,2.512353422,0.01,16.49,2976,0
HODM,9/1/19,4.077024305,2.933552287,0,15.95,2880,0
HODM,10/1/19,2.500433469,1.892188095,0,12.57,2976,0
HODM,11/1/19,2.389041665,1.679795775,0.05,11.28,2880,0
HODM,12/1/19,2.394691016,1.54611966,0,8.84,2971,0
HODM,1/1/20,1.960534947,1.273315491,0.031,7.39,2976,0
HODM,2/1/20,2.195927801,1.660142473,0.027,10.79,2784,0
HODM,3/1/20,2.849319891,2.293801911,0,14.64,2976,0
HODM,4/1/20,4.061774999,3.116861329,0.025,21.36,2880,0
HODM,5/1/20,3.416001009,2.105620446,0.022,15.82,2976,0
HODM,6/1/20,4.173950347,3.488566307,0.054,20.25,2880,0
HODM,7/1/20,3.933418345,3.433337313,0.076,21.87,2976,0
HODM,8/1/20,3.307045698,3.111042871,0.027,21.1,2976,0
HODM,9/1/20,3.206178819,2.062677401,0.136,16.67,2880,0
HODM,10/1/20,3.305129705,2.639958037,0.029,17.1,2976,0
HODM,11/1/20,2.404972917,1.647730745,0.003,8.69,2880,0
HODM,12/1/20,2.760163641,1.60559405,0.071,10.75,2976,0
HODM,1/1/21,2.724046038,2.087443131,0.05,15.88,2976,0
HODM,2/1/21,2.406988093,1.990115799,0,14.18,2688,0
HODM,3/1/21,2.504363576,1.965202026,0,11.65,2976,0
HODM,4/1/21,3.097982291,2.045096311,0,11.22,2880,0
HODM,5/1/21,3.836462369,2.636561329,0.097,14.98,2976,0
HODM,6/1/21,4.141663887,3.409557216,0.132,25.91,2880,0
HODM,7/1/21,3.390565864,2.567880813,0.076,16.72,2976,0
HODM,8/1/21,3.741426408,3.780988379,0.015,22.84,2976,0
HODM,9/1/21,3.630255555,2.527604622,0.034,20.53,2880,0
HODM,10/1/21,3.577246975,3.381515598,0.069,21.92,2976,0
HODM,11/1/21,2.595115624,1.869239374,0.029,13.14,2880,0
HODM,12/1/21,2.860920026,1.699726585,0,11.97,2976,0
HODM,1/1/22,2.806003696,1.711802342,0.003,11.27,2976,0
HODM,2/1/22,2.447298362,1.844753373,0,13.65,2688,0
HODM,3/1/22,3.437645161,3.037633494,0.005,20.39,2976,0
HODM,4/1/22,3.262544442,2.525765902,0.055,20.78,2880,0
HODM,5/1/22,4.545774527,3.668613597,0.137,26.46,2976,0
HODM,6/1/22,3.370402428,2.174792649,0.007,14.94,2880,0
HODM,7/1/22,4.665587034,3.358702735,0.14,23.23,2976,0
HODM,8/1/22,4.00686996,2.734846156,0.179,20.02,2976,0
HODM,9/1/22,3.382113194,2.684988623,0,18.72,2880,0
HODM,10/1/22,2.819737569,3.084384502,0,26.16,2976,0
HODM,11/1/22,2.62118472,1.711757011,0.005,14.91,2880,0
HODM,12/1/22,2.613831056,2.023607126,0.092,15.85,1758,0